Wrangell, AK

7:02 PM AKDT on April 19, 2018 (GMT -0800)
Wrangell

Weather History for PAWG - December, 2012

Change the Weather History Date:

Sunday, December 2, 2012

  Actual Average Record
Temperature  
Mean Temperature 27 °F -  
Max Temperature 28 °F 36 °F 51 °F (1963)
Min Temperature 26 °F 28 °F 0 °F (1970)
Degree Days  
Heating Degree Days 38    
Moisture  
Dew Point 20 °F    
Average Humidity 74    
Maximum Humidity 80    
Minimum Humidity 64    
Precipitation  
Precipitation 0.00 in - - ()
Sea Level Pressure  
Sea Level Pressure 29.17 in    
Wind  
Wind Speed 10 mph (East)    
Max Wind Speed 16 mph    
Max Gust Speed 21 mph    
Visibility 6 miles    
Events      
Averages and records for this station are not official NWS values.
T = Trace of Precipitation, MM = Missing Value Source: NWS Daily Summary

Daily Weather History Graph

Daily Weather History Graph

Search for Another Location

Airport or City:

Astronomy

Dec. 02, 2012 Rise Set
Actual Time 8:02 AM AKST 3:15 PM AKST
Civil Twilight 7:15 AM AKST 4:02 PM AKST
Nautical Twilight 6:26 AM AKST 4:51 PM AKST
Astronomical Twilight 5:40 AM AKST 5:37 PM AKST
Moon 7:33 PM AKST (12/2) 10:36 AM AKST (12/2)
Length of Visible Light 8h 47m
Length of Day
7h 13m
Waning Gibbous, 84% of the Moon is Illuminated
Dec 2
Waning Gibbous
Dec 6
Last Quarter
Dec 12
New
Dec 19
First Quarter
Dec 28
Full

Hourly Weather History & Observations

Time (AKST) Temp. Windchill Dew Point Humidity Pressure Visibility Wind Dir Wind Speed Gust Speed Precip Events Conditions
12:16 AM 26.6 °F 17.5 °F 17.6 °F 69% 29.19 in 10.0 mi ENE 9.2 mph - N/A   Overcast
12:36 AM 26.6 °F 17.5 °F 17.6 °F 69% 29.18 in 10.0 mi East 9.2 mph - N/A   Overcast
12:56 AM 26.6 °F 17.5 °F 17.6 °F 69% 29.18 in 10.0 mi East 9.2 mph - N/A   Overcast
1:16 AM 26.6 °F 18.2 °F 19.4 °F 74% 29.18 in 10.0 mi East 8.1 mph - N/A   Overcast
1:36 AM 26.6 °F 18.2 °F 17.6 °F 69% 29.17 in 10.0 mi East 8.1 mph - N/A   Overcast
1:56 AM 26.6 °F 17.5 °F 17.6 °F 69% 29.17 in 10.0 mi ESE 9.2 mph - N/A   Overcast
2:16 AM 26.6 °F 16.8 °F 17.6 °F 69% 29.17 in 10.0 mi East 10.4 mph - N/A   Overcast
2:36 AM 26.6 °F 17.5 °F 17.6 °F 69% 29.17 in 10.0 mi East 9.2 mph - N/A   Overcast
3:16 AM 28.4 °F 19.7 °F 17.6 °F 64% 29.15 in 10.0 mi East 9.2 mph - N/A   Overcast
3:36 AM 26.6 °F 16.8 °F 17.6 °F 69% 29.15 in 10.0 mi ESE 10.4 mph - N/A   Overcast
3:56 AM 26.6 °F 18.2 °F 19.4 °F 74% 29.15 in 10.0 mi East 8.1 mph - N/A   Overcast
4:16 AM 26.6 °F 17.5 °F 17.6 °F 69% 29.14 in 10.0 mi East 9.2 mph - N/A   Overcast
4:36 AM 26.6 °F 17.5 °F 17.6 °F 69% 29.14 in 10.0 mi ENE 9.2 mph - N/A   Overcast
4:56 AM 28.4 °F 19.1 °F 17.6 °F 64% 29.14 in 10.0 mi East 10.4 mph 16.1 mph N/A   Overcast
5:16 AM 26.6 °F 17.5 °F 17.6 °F 69% 29.14 in 10.0 mi East 9.2 mph - N/A   Overcast
5:36 AM 26.6 °F 16.8 °F 17.6 °F 69% 29.13 in 10.0 mi ESE 10.4 mph 16.1 mph N/A   Overcast
5:56 AM 26.6 °F 15.2 °F 17.6 °F 69% 29.12 in 10.0 mi ENE 13.8 mph 20.7 mph N/A   Overcast
6:16 AM 26.6 °F 17.5 °F 17.6 °F 69% 29.13 in 10.0 mi East 9.2 mph - N/A   Overcast
6:36 AM 26.6 °F 16.8 °F 17.6 °F 69% 29.13 in 10.0 mi East 10.4 mph - N/A   Overcast
6:56 AM 26.6 °F 16.8 °F 17.6 °F 69% 29.13 in 10.0 mi East 10.4 mph - N/A   Overcast
7:16 AM 26.6 °F 16.2 °F 17.6 °F 69% 29.13 in 10.0 mi ESE 11.5 mph - N/A   Overcast
7:36 AM 26.6 °F 17.5 °F 19.4 °F 74% 29.13 in 10.0 mi East 9.2 mph - N/A   Overcast
7:56 AM 26.6 °F 17.5 °F 19.4 °F 74% 29.13 in 7.0 mi ESE 9.2 mph - N/A   Overcast
8:16 AM 26.6 °F 20.0 °F 17.6 °F 69% 29.13 in 10.0 mi East 5.8 mph - N/A   Overcast
8:36 AM 26.6 °F 17.5 °F 19.4 °F 74% 29.13 in 7.0 mi East 9.2 mph - N/A   Overcast
8:56 AM 26.6 °F 16.2 °F 21.2 °F 80% 29.13 in 2.0 mi East 11.5 mph - N/A   Overcast
9:16 AM 26.6 °F 16.8 °F 19.4 °F 74% 29.14 in 2.0 mi East 10.4 mph - N/A   Overcast
9:36 AM 26.6 °F 17.5 °F 19.4 °F 74% 29.14 in 2.0 mi East 9.2 mph - N/A   Overcast
9:56 AM 26.6 °F 16.2 °F 21.2 °F 80% 29.14 in 2.0 mi East 11.5 mph - N/A   Overcast
10:16 AM 26.6 °F 17.5 °F 19.4 °F 74% 29.14 in 2.0 mi ENE 9.2 mph - N/A   Overcast
10:36 AM 26.6 °F 16.8 °F 19.4 °F 74% 29.14 in 2.0 mi East 10.4 mph - N/A   Overcast
10:56 AM 26.6 °F 16.8 °F 19.4 °F 74% 29.14 in 3.0 mi East 10.4 mph - N/A   Overcast
11:16 AM 26.6 °F 16.8 °F 19.4 °F 74% 29.14 in 3.0 mi East 10.4 mph 16.1 mph N/A   Overcast
11:36 AM 26.6 °F 16.2 °F 19.4 °F 74% 29.14 in 3.0 mi ENE 11.5 mph - N/A   Overcast
11:56 AM 26.6 °F 19.1 °F 19.4 °F 74% 29.14 in 2.0 mi East 6.9 mph - N/A   Overcast
12:16 PM 26.6 °F 17.5 °F 19.4 °F 74% 29.14 in 2.0 mi East 9.2 mph - N/A   Overcast
12:36 PM 26.6 °F 17.5 °F 19.4 °F 74% 29.14 in 2.0 mi East 9.2 mph - N/A   Overcast
12:56 PM 26.6 °F 16.8 °F 19.4 °F 74% 29.14 in 7.0 mi East 10.4 mph - N/A   Overcast
1:16 PM 26.6 °F 18.2 °F 19.4 °F 74% 29.14 in 7.0 mi East 8.1 mph - N/A   Overcast
1:36 PM 26.6 °F 17.5 °F 19.4 °F 74% 29.14 in 7.0 mi East 9.2 mph - N/A   Overcast
1:56 PM 26.6 °F 15.7 °F 19.4 °F 74% 29.14 in 7.0 mi East 12.7 mph - N/A   Overcast
2:16 PM 26.6 °F 16.8 °F 21.2 °F 80% 29.15 in 7.0 mi East 10.4 mph - N/A   Overcast
2:36 PM 28.4 °F 18.5 °F 21.2 °F 74% 29.14 in 7.0 mi East 11.5 mph - N/A   Overcast
2:56 PM 26.6 °F 16.2 °F 21.2 °F 80% 29.15 in 4.0 mi East 11.5 mph - N/A   Overcast
3:16 PM 26.6 °F 15.7 °F 19.4 °F 74% 29.15 in 4.0 mi ENE 12.7 mph 18.4 mph N/A   Overcast
3:36 PM 26.6 °F 17.5 °F 19.4 °F 74% 29.16 in 4.0 mi East 9.2 mph - N/A   Overcast
3:56 PM 28.4 °F 19.1 °F 21.2 °F 74% 29.15 in 4.0 mi ENE 10.4 mph - N/A   Overcast
4:16 PM 28.4 °F 17.5 °F 19.4 °F 69% 29.15 in 4.0 mi East 13.8 mph 18.4 mph N/A   Overcast
4:36 PM 28.4 °F 17.5 °F 21.2 °F 74% 29.15 in 4.0 mi East 13.8 mph - N/A   Overcast
4:56 PM 28.4 °F 18.0 °F 19.4 °F 69% 29.15 in 4.0 mi ENE 12.7 mph - N/A   Overcast
5:16 PM 28.4 °F 19.1 °F 19.4 °F 69% 29.16 in 4.0 mi East 10.4 mph - N/A   Overcast
5:36 PM 28.4 °F 17.5 °F 21.2 °F 74% 29.16 in 4.0 mi East 13.8 mph - N/A   Overcast
5:56 PM 28.4 °F 18.5 °F 19.4 °F 69% 29.17 in 5.0 mi East 11.5 mph 16.1 mph N/A   Overcast
6:16 PM 28.4 °F 19.1 °F 21.2 °F 74% 29.18 in 5.0 mi East 10.4 mph - N/A   Overcast
6:36 PM 28.4 °F 18.0 °F 21.2 °F 74% 29.18 in 5.0 mi East 12.7 mph 16.1 mph N/A   Overcast
6:56 PM 26.6 °F 16.2 °F 19.4 °F 74% 29.18 in 5.0 mi East 11.5 mph 17.3 mph N/A   Overcast
7:16 PM 26.6 °F 16.8 °F 21.2 °F 80% 29.19 in 5.0 mi East 10.4 mph - N/A   Overcast
7:36 PM 26.6 °F 14.7 °F 21.2 °F 80% 29.19 in 5.0 mi East 15.0 mph 18.4 mph N/A   Overcast
7:56 PM 26.6 °F 15.7 °F 21.2 °F 80% 29.19 in 5.0 mi East 12.7 mph 20.7 mph N/A   Overcast
8:16 PM 26.6 °F 16.2 °F 21.2 °F 80% 29.20 in 5.0 mi East 11.5 mph 18.4 mph N/A   Overcast
8:36 PM 26.6 °F 17.5 °F 21.2 °F 80% 29.21 in 5.0 mi East 9.2 mph - N/A   Overcast
8:56 PM 26.6 °F 15.7 °F 21.2 °F 80% 29.21 in 5.0 mi East 12.7 mph - N/A   Overcast
9:16 PM 26.6 °F 15.7 °F 21.2 °F 80% 29.22 in 5.0 mi East 12.7 mph 18.4 mph N/A   Overcast
9:36 PM 26.6 °F 15.7 °F 21.2 °F 80% 29.22 in 5.0 mi ENE 12.7 mph 17.3 mph N/A   Overcast
9:56 PM 26.6 °F 16.8 °F 21.2 °F 80% 29.24 in 4.0 mi East 10.4 mph - N/A   Overcast
10:16 PM 26.6 °F 16.2 °F 21.2 °F 80% 29.25 in 4.0 mi East 11.5 mph 17.3 mph N/A   Overcast
10:36 PM 26.6 °F 14.3 °F 21.2 °F 80% 29.25 in 4.0 mi East 16.1 mph 19.6 mph N/A   Overcast
10:56 PM 26.6 °F 15.7 °F 21.2 °F 80% 29.27 in 4.0 mi East 12.7 mph - N/A   Overcast
11:16 PM 26.6 °F 15.7 °F 21.2 °F 80% 29.28 in 5.0 mi East 12.7 mph 17.3 mph N/A   Mostly Cloudy
11:36 PM 26.6 °F 14.3 °F 21.2 °F 80% 29.29 in 6.0 mi East 16.1 mph 19.6 mph N/A   Overcast
11:56 PM 26.6 °F 14.7 °F 21.2 °F 80% 29.29 in 5.0 mi East 15.0 mph 20.7 mph N/A   Mostly Cloudy